Tracking 29892 objects as of 21-Nov-2024
HD Live streaming from Space Station
objects crossing your sky now

STARLINK-3196

Track STARLINK-3196 now!
10-day predictions
STARLINK-3196 is classified as:


NORAD ID: 49768
Int'l Code: 2021-115AW
Perigee: 546.0 km
Apogee: 547.8 km
Inclination: 53.2 °
Period: 95.4 minutes
Semi major axis: 6917 km
RCS: Unknown
Launch date: December 2, 2021
Source: United States (US)
Launch site: AIR FORCE EASTERN TEST RANGE (AFETR)
Your satellite tracking list
Your tracking list is empty




NASA's NSSDC Master Catalog

Two Line Element Set (TLE):
1 49768U 21115AW  24325.77985194  .00002230  00000-0  15812-3 0  9997
2 49768  53.2172 106.5829 0001295  94.5541 265.5599 15.08845213164135
Source of the keplerian elements: AFSPC